Weather in Filatovskoe

Russia / Sverdlovsk Oblast     56°50′47″N   62°17′54″E
temp.,
°C
wind,
m/s
gust,
m/s
humid.,
%
clouds,
%
prec.,
mm/h
press.,
hPa
HPBL,
m
23 january, sat
sat2323:00−28nnw349750 0.0 102882
02:00−31n349869 0.0 103049
05:00−34n349745 0.0 103346
08:00−36n239848 0.0 103519
11:00−35nnw239551 0.0 103797
14:00−32e1192100 0.0 1037149
17:00−32sse129494 0.0 103620
20:00−32sse3395100 0.0 103880
24 january, sun
sun2423:00−31sse3495100 0.0 1038115
02:00−28se3597100 0.1 1034233
05:00−27ese3598100 0.4 1033236
08:00−28ese3698100 0.3 1034222
11:00−25sse4795100 0.0 1035275
14:00−25ese3596100 0.0 1035273
17:00−25ese4696100 0.0 1036300
20:00−19s5997100 1.0 1029407
25 january, mon
mon2523:00−18sse4797100 1.8 1028277
02:00−16s2496100 0.4 1027185
05:00−22se4698100 1.1 1032318
08:00−15ne1196100 0.0 102820
11:00−20ese3497100 1.3 1032241
14:00−18ese3395100 0.3 1032265
17:00−4s239793 0.5 102899
20:00+1w49100100 0.7 1028314
26 january, tue
tue2623:00−18ese229798 0.6 103373
02:00−17se239799 0.4 1032118
05:00−1w51194100 0.3 1027557
08:00−2w5128997 0.1 1027524
11:00−7sse239699 1.0 103197
14:00−2ssw249793 0.2 1031263
17:00−5wsw479185 0.0 1027142
20:00−2sw3793100 0.0 1030206
27 january, wed
wed2723:00−5sw479197 0.0 1025136
02:00−4sw4892100 0.0 1029176
05:00−6sw4793100 0.0 1028136
08:00−7wsw348988 0.0 102581
11:00−4sw599094 0.0 1027395
14:00−3wsw598786 0.0 1027483
17:00−6w339098 0.0 102540
20:00−7wnw3394100 0.0 102868